• Join FlightAware (Why Join?)
  • Login
  • US Flag 
12:48AM EST


 

Airport Tracker/Info


-or-


 

Live Flight TrackerFlight Track Log ✈ SKW6492 ✈ 21-Jan-2014 ✈ KDEN - KCOD

Flight Track Log - Related Links

Times and Time Zones

All times are in EST time to prevent confusion due to time zone crossing. See the SKW6492 flight status page for this flight to view local times or setup timezone preferences in your user account.

Time Position Orientation Groundspeed Altitude Reporting Facility
EST Latitude Longitude Course Direction KTS MPH feet Rate Location/Type
10:10PM 39.8833 -104.6167 90° East 145 167 6,800  Level Denver TRACON
10:11PM 39.8833 -104.5333 90° East 226 260 8,400 1,700 Climbing Denver TRACON
10:12PM 39.9333 -104.4500 52° Northeast 294 338 10,200 2,558 Climbing Denver TRACON
10:15PM 40.0953 -104.4417 North 267 307 16,800 2,576 Climbing Denver Center
10:16PM 40.1672 -104.4828 336° Northwest 280 322 18,700 1,918 Climbing Denver Center
10:17PM 40.2389 -104.5244 336° Northwest 285 328 20,700 1,672 Climbing Denver Center
10:18PM 40.3175 -104.5708 336° Northwest 287 330 22,100 1,131 Climbing Denver Center
10:19PM 40.4008 -104.6192 336° Northwest 327 376 23,000 1,033 Climbing Denver Center
10:20PM 40.4864 -104.6719 335° Northwest 339 390 24,200 1,230 Climbing Denver Center
10:21PM 40.5742 -104.7231 336° Northwest 345 397 25,500 1,230 Climbing Denver Center
10:22PM 40.6619 -104.7753 336° Northwest 347 399 26,700 984 Climbing Denver Center
10:23PM 40.7431 -104.8422 328° Northwest 348 400 27,500 836 Climbing Denver Center
10:24PM 40.8194 -104.9222 322° Northwest 351 404 28,400 1,131 Climbing Denver Center
10:25PM 40.8950 -105.0003 322° Northwest 348 400 29,800 1,033 Climbing Denver Center
10:26PM 40.9686 -105.0753 322° Northwest 339 390 30,500 836 Climbing Denver Center
10:27PM 41.0542 -105.1622 323° Northwest 336 387 31,500 738 Climbing Denver Center
10:28PM 41.1256 -105.2375 322° Northwest 339 390 32,000 246 Climbing Denver Center
10:29PM 41.1986 -105.3139 322° Northwest 345 397 32,000  Level Denver Center
10:30PM 41.2894 -105.4067 323° Northwest 365 420 32,000  Level Denver Center
10:31PM 41.3700 -105.4922 321° Northwest 380 437 32,000  Level Denver Center
10:32PM 41.4486 -105.5753 322° Northwest 379 436 32,000  Level Denver Center
10:33PM 41.5403 -105.6719 322° Northwest 376 433 32,000  Level Denver Center
10:34PM 41.6178 -105.7539 322° Northwest 371 427 32,000  Level Denver Center
10:35PM 41.6944 -105.8342 322° Northwest 368 423 32,000  Level Denver Center
10:36PM 41.7811 -105.9272 321° Northwest 360 414 32,000  Level Denver Center
10:37PM 41.8581 -106.0092 322° Northwest 364 419 32,000  Level Denver Center
10:38PM 41.9344 -106.0900 322° Northwest 365 420 32,000  Level Denver Center
10:39PM 42.0219 -106.1842 321° Northwest 362 417 32,000  Level Denver Center
10:40PM 42.0975 -106.2656 321° Northwest 363 418 32,000  Level Denver Center
10:41PM 42.1711 -106.3467 321° Northwest 360 414 32,000  Level Denver Center
10:42PM 42.2597 -106.4419 322° Northwest 364 419 32,000  Level Denver Center
10:43PM 42.3406 -106.5300 321° Northwest 363 418 32,000  Level Denver Center
10:44PM 42.4103 -106.6064 321° Northwest 363 418 32,000  Level Denver Center
10:45PM 42.4992 -106.7042 321° Northwest 367 422 32,000  Level Denver Center
10:46PM 42.5753 -106.7869 321° Northwest 367 422 32,000  Level Denver Center
10:47PM 42.6500 -106.8697 321° Northwest 364 419 32,000  Level Denver Center
10:48PM 42.7378 -106.9672 321° Northwest 365 420 32,000  Level Denver Center
10:49PM 42.8131 -107.0508 321° Northwest 364 419 32,000  Level Denver Center
10:50PM 42.8889 -107.1350 321° Northwest 368 423 32,000  Level Denver Center
10:51PM 42.9781 -107.2361 320° Northwest 367 422 32,000  Level Salt Lake Center
10:52PM 43.0569 -107.3250 321° Northwest 368 423 32,000  Level Salt Lake Center
10:53PM 43.1356 -107.4147 320° Northwest 369 425 32,000  Level Salt Lake Center
10:54PM 43.2144 -107.5033 321° Northwest 368 423 32,000  Level Salt Lake Center
10:55PM 43.2931 -107.5936 320° Northwest 369 425 32,000  Level Salt Lake Center
10:56PM 43.3722 -107.6833 321° Northwest 368 423 32,000  Level Salt Lake Center
10:57PM 43.4525 -107.7739 321° Northwest 373 429 32,000  Level Salt Lake Center
10:58PM 43.5314 -107.8656 320° Northwest 371 427 32,000 -246 Level Salt Lake Center
10:59PM 43.6119 -107.9583 320° Northwest 375 432 31,500 -984 Descending Salt Lake Center
11:00PM 43.6967 -108.0561 320° Northwest 392 451 30,000 -1,854 Descending Salt Lake Center
11:01PM 43.7808 -108.1533 320° Northwest 394 453 27,700 -2,878 Descending Salt Lake Center
11:02PM 43.8825 -108.2722 320° Northwest 398 458 24,100 -3,246 Descending Salt Lake Center
11:03PM 43.9667 -108.3714 320° Northwest 398 458 21,100 -2,951 Descending Salt Lake Center
11:04PM 44.0486 -108.4669 320° Northwest 389 448 18,100 -2,852 Descending Salt Lake Center
11:05PM 44.1275 -108.5600 320° Northwest 383 441 15,300 -2,705 Descending Salt Lake Center
11:06PM 44.2000 -108.6478 319° Northwest 369 425 12,600 -2,508 Descending Salt Lake Center
11:07PM 44.2656 -108.7233 320° Northwest 343 395 10,200 -1,279 Descending Salt Lake Center
11:08PM 44.3200 -108.7864 320° Northwest 301 346 10,000 -98 Descending Salt Lake Center
11:09PM 44.3611 -108.8356 319° Northwest 242 278 10,000 -443 Level Salt Lake Center
11:10PM 44.4158 -108.8608 342° North 223 257 9,100 -1,377 Descending Salt Lake Center
11:12PM 44.4769 -108.8764 350° North 223 257 7,200 -1,230 Descending Salt Lake Center
11:13PM 44.5325 -108.9144 334° Northwest 221 254 6,600 -590 Descending Salt Lake Center
11:14PM 44.5675 -108.9694 312° West 204 235 6,000 -590 Descending Salt Lake Center